When you browse on this site, cookies collect data to enhance your experience and personalize the content and advertising you see.
Visit our Privacy Policy to learn more. By continuing to use the site, you agree to this use of cookies and data.
  • Em Portugal
  • Lista de países
  • Para 7 dias
  • Temperatura da água
  • Mapas de satélite
  • Mapa do tempo
  • Widgets de tempo
  • user-avatar
    Iniciar Sessão

    Previsão horária em Elbasan

    Hoje, 25 Março, Segunda-feira

    Tempo Temperatura Precipitação Vento Pressão Humidade
    00:00 +13°C° 0 mm 1 m/s 736 mmHg 61%
    01:00 +13°C° 0 mm 1 m/s 735 mmHg 62%
    02:00 +12°C° 0 mm 1 m/s 735 mmHg 62%
    03:00 +12°C° 0 mm 1 m/s 735 mmHg 63%
    04:00 +10°C° 0 mm 0 m/s 735 mmHg 63%
    05:00 +12°C° 0 mm 1 m/s 735 mmHg 61%
    06:00 +13°C° 0 mm 1 m/s 735 mmHg 59%
    07:00 +14°C° 0 mm 1 m/s 735 mmHg 56%
    08:00 +15°C° 0 mm 1 m/s 734 mmHg 49%
    09:00 +17°C° 0 mm 2 m/s 734 mmHg 42%
    10:00 +18°C° 0 mm 2 m/s 734 mmHg 35%
    11:00 +19°C° 0 mm 2 m/s 733 mmHg 34%
    12:00 +20°C° 0 mm 3 m/s 733 mmHg 33%
    13:00 +20°C° 0 mm 3 m/s 733 mmHg 33%
    14:00 +20°C° 0 mm 3 m/s 732 mmHg 36%
    15:00 +19°C° 0 mm 3 m/s 732 mmHg 39%
    16:00 +19°C° 0 mm 3 m/s 731 mmHg 43%
    17:00 +17°C° 0 mm 2 m/s 731 mmHg 51%
    18:00 +15°C° 0 mm 1 m/s 731 mmHg 59%
    19:00 +12°C° 0 mm 0 m/s 731 mmHg 68%
    20:00 +12°C° 0 mm 0 m/s 731 mmHg 68%
    21:00 +12°C° 0 mm 0 m/s 731 mmHg 69%
    22:00 +11°C° 0 mm 0 m/s 731 mmHg 70%
    23:00 +11°C° 0 mm 0 m/s 731 mmHg 69%

    Amanhã, 26 Março, Terça-feira

    Tempo Temperatura Precipitação Vento Pressão Humidade
    00:00 +12°C° 0 mm 1 m/s 730 mmHg 69%
    01:00 +11°C° 0 mm 1 m/s 730 mmHg 68%
    02:00 +11°C° 0 mm 1 m/s 730 mmHg 68%
    03:00 +11°C° 0 mm 1 m/s 730 mmHg 68%
    04:00 +11°C° 0 mm 1 m/s 730 mmHg 68%
    05:00 +12°C° 0 mm 1 m/s 731 mmHg 67%
    06:00 +12°C° 0 mm 1 m/s 731 mmHg 66%
    07:00 +13°C° 0 mm 1 m/s 731 mmHg 65%
    08:00 +15°C° 0 mm 1 m/s 731 mmHg 59%
    09:00 +16°C° 0 mm 1 m/s 732 mmHg 52%
    10:00 +19°C° 0 mm 1 m/s 732 mmHg 46%
    11:00 +20°C° 0.2 mm 1 m/s 732 mmHg 45%
    12:00 +19°C° 0.2 mm 2 m/s 732 mmHg 44%
    13:00 +19°C° 0.2 mm 2 m/s 732 mmHg 43%
    14:00 +19°C° 0.4 mm 2 m/s 732 mmHg 45%
    15:00 +18°C° 0.4 mm 2 m/s 732 mmHg 47%
    16:00 +18°C° 0.4 mm 2 m/s 732 mmHg 49%
    17:00 +16°C° 0.1 mm 1 m/s 732 mmHg 54%
    18:00 +15°C° 0.1 mm 1 m/s 733 mmHg 59%
    19:00 +13°C° 0.1 mm 1 m/s 734 mmHg 64%
    20:00 +13°C° 0 mm 2 m/s 734 mmHg 64%
    21:00 +12°C° 0 mm 2 m/s 735 mmHg 64%
    22:00 +11°C° 0 mm 3 m/s 735 mmHg 63%
    23:00 +10°C° 0 mm 3 m/s 736 mmHg 63%

    Depois de amanhã, 27 Março, Quarta-feira

    Tempo Temperatura Precipitação Vento Pressão Humidade
    00:00 +10°C° 0 mm 3 m/s 736 mmHg 63%
    01:00 +9°C° 0 mm 3 m/s 736 mmHg 63%
    02:00 +9°C° 0 mm 3 m/s 736 mmHg 63%
    03:00 +8°C° 0 mm 3 m/s 736 mmHg 63%
    04:00 +8°C° 0 mm 3 m/s 736 mmHg 64%
    05:00 +8°C° 0 mm 3 m/s 736 mmHg 61%
    06:00 +9°C° 0 mm 3 m/s 737 mmHg 59%
    07:00 +9°C° 0 mm 3 m/s 737 mmHg 57%
    08:00 +11°C° 0 mm 3 m/s 737 mmHg 51%
    09:00 +13°C° 0 mm 3 m/s 738 mmHg 46%
    10:00 +16°C° 0 mm 3 m/s 738 mmHg 40%
    11:00 +16°C° 0 mm 3 m/s 738 mmHg 40%
    12:00 +17°C° 0 mm 3 m/s 737 mmHg 39%
    13:00 +18°C° 0 mm 3 m/s 737 mmHg 38%
    14:00 +17°C° 0.1 mm 2 m/s 737 mmHg 42%
    15:00 +16°C° 0.1 mm 2 m/s 737 mmHg 47%
    16:00 +15°C° 0.1 mm 2 m/s 737 mmHg 52%
    17:00 +14°C° 0.1 mm 2 m/s 737 mmHg 57%
    18:00 +13°C° 0.1 mm 1 m/s 737 mmHg 62%
    19:00 +12°C° 0.1 mm 1 m/s 737 mmHg 67%
    20:00 +12°C° 0 mm 2 m/s 738 mmHg 65%
    21:00 +12°C° 0 mm 2 m/s 738 mmHg 63%
    22:00 +10°C° 0 mm 2 m/s 738 mmHg 61%
    23:00 +10°C° 0 mm 2 m/s 738 mmHg 59%

    28 Março, Quinta-feira

    Tempo Temperatura Precipitação Vento Pressão Humidade
    00:00 +9°C° 0 mm 3 m/s 738 mmHg 57%
    01:00 +9°C° 0 mm 3 m/s 738 mmHg 55%
    02:00 +9°C° 0 mm 3 m/s 738 mmHg 55%
    03:00 +8°C° 0 mm 3 m/s 738 mmHg 55%
    04:00 +8°C° 0 mm 3 m/s 738 mmHg 55%
    05:00 +7°C° 0 mm 4 m/s 738 mmHg 54%
    06:00 +7°C° 0 mm 4 m/s 738 mmHg 54%
    07:00 +8°C° 0 mm 4 m/s 739 mmHg 53%
    08:00 +10°C° 0 mm 4 m/s 739 mmHg 49%
    09:00 +10°C° 0 mm 5 m/s 739 mmHg 44%
    10:00 +13°C° 0 mm 5 m/s 739 mmHg 40%
    11:00 +14°C° 0 mm 5 m/s 739 mmHg 39%
    12:00 +14°C° 0 mm 5 m/s 739 mmHg 38%
    13:00 +15°C° 0 mm 5 m/s 739 mmHg 37%
    14:00 +15°C° 0 mm 5 m/s 738 mmHg 39%
    15:00 +15°C° 0 mm 4 m/s 738 mmHg 40%
    16:00 +15°C° 0 mm 4 m/s 738 mmHg 41%
    17:00 +13°C° 0 mm 4 m/s 738 mmHg 45%
    18:00 +12°C° 0 mm 3 m/s 739 mmHg 49%
    19:00 +10°C° 0 mm 3 m/s 739 mmHg 54%
    20:00 +9°C° 0 mm 3 m/s 739 mmHg 55%
    21:00 +9°C° 0 mm 3 m/s 740 mmHg 56%
    22:00 +8°C° 0 mm 3 m/s 740 mmHg 57%
    23:00 +8°C° 0 mm 3 m/s 740 mmHg 59%

    29 Março, Sexta-feira

    Tempo Temperatura Precipitação Vento Pressão Humidade
    00:00 +8°C° 0 mm 3 m/s 740 mmHg 61%
    01:00 +7°C° 0 mm 3 m/s 741 mmHg 63%
    02:00 +7°C° 0 mm 3 m/s 741 mmHg 65%
    03:00 +7°C° 0 mm 3 m/s 741 mmHg 67%
    04:00 +5°C° 0 mm 3 m/s 741 mmHg 69%
    05:00 +7°C° 0 mm 3 m/s 741 mmHg 66%
    06:00 +8°C° 0 mm 3 m/s 741 mmHg 63%
    07:00 +7°C° 0 mm 4 m/s 741 mmHg 60%
    08:00 +10°C° 0 mm 4 m/s 741 mmHg 52%
    09:00 +12°C° 0 mm 4 m/s 741 mmHg 44%
    10:00 +13°C° 0 mm 4 m/s 742 mmHg 36%
    11:00 +14°C° 0 mm 4 m/s 741 mmHg 34%
    12:00 +15°C° 0 mm 4 m/s 741 mmHg 32%
    13:00 +15°C° 0 mm 5 m/s 741 mmHg 30%
    14:00 +15°C° 0 mm 4 m/s 741 mmHg 30%
    15:00 +15°C° 0 mm 4 m/s 740 mmHg 30%
    16:00 +15°C° 0 mm 4 m/s 740 mmHg 30%
    17:00 +14°C° 0 mm 3 m/s 740 mmHg 35%
    18:00 +12°C° 0 mm 3 m/s 740 mmHg 40%
    19:00 +10°C° 0 mm 2 m/s 741 mmHg 44%
    20:00 +10°C° 0 mm 2 m/s 741 mmHg 46%
    21:00 +9°C° 0 mm 2 m/s 741 mmHg 48%
    22:00 +8°C° 0 mm 2 m/s 741 mmHg 50%
    23:00 +8°C° 0 mm 2 m/s 741 mmHg 51%

    30 Março, Sábado

    Tempo Temperatura Precipitação Vento Pressão Humidade
    00:00 +8°C° 0 mm 2 m/s 741 mmHg 53%
    01:00 +7°C° 0 mm 2 m/s 741 mmHg 54%
    02:00 +7°C° 0 mm 2 m/s 741 mmHg 55%
    03:00 +7°C° 0 mm 2 m/s 741 mmHg 57%
    04:00 +6°C° 0 mm 2 m/s 741 mmHg 58%
    05:00 +7°C° 0 mm 2 m/s 741 mmHg 58%
    06:00 +8°C° 0 mm 2 m/s 741 mmHg 58%
    07:00 +9°C° 0 mm 2 m/s 742 mmHg 58%
    08:00 +11°C° 0 mm 3 m/s 741 mmHg 51%
    09:00 +13°C° 0 mm 3 m/s 741 mmHg 43%
    10:00 +16°C° 0 mm 3 m/s 741 mmHg 36%
    11:00 +17°C° 0 mm 3 m/s 741 mmHg 34%
    12:00 +18°C° 0 mm 3 m/s 740 mmHg 32%
    13:00 +19°C° 0 mm 2 m/s 740 mmHg 29%
    14:00 +19°C° 0 mm 3 m/s 740 mmHg 31%
    15:00 +19°C° 0 mm 3 m/s 739 mmHg 33%
    16:00 +18°C° 0 mm 3 m/s 739 mmHg 34%
    17:00 +16°C° 0 mm 2 m/s 739 mmHg 42%
    18:00 +15°C° 0 mm 2 m/s 739 mmHg 49%
    19:00 +13°C° 0 mm 1 m/s 739 mmHg 57%
    20:00 +12°C° 0 mm 1 m/s 739 mmHg 57%
    21:00 +12°C° 0 mm 2 m/s 739 mmHg 56%
    22:00 +10°C° 0 mm 2 m/s 739 mmHg 56%
    23:00 +10°C° 0 mm 2 m/s 739 mmHg 57%
    Mostrar mais